Bellingham, WA

2:15 PM PDT on June 28, 2017 (GMT -0700)
Bellingham International

Weather History for KBLI - August, 2013

Change the Weather History Date:

Thursday, August 8, 2013

  Actual Average Record
Temperature  
Mean Temperature 67 °F 63 °F  
Max Temperature 74 °F 73 °F 94 °F (1978)
Min Temperature 59 °F 54 °F 47 °F (2002)
Degree Days  
Heating Degree Days 0 2  
Month to date heating degree days 10 15  
Since 1 June heating degree days 186 317  
Cooling Degree Days 2 0  
Month to date cooling degree days 8 0  
Year to date cooling degree days 57 23  
Since 1 June cooling degree days 57 23  
Growing Degree Days 16 (Base 50)    
Moisture  
Dew Point 56 °F    
Average Humidity 75    
Maximum Humidity 93    
Minimum Humidity 57    
Precipitation  
Precipitation 0.00 in 0.03 in 0.67 in (1962)
Month to date precipitation 0.27 0.24  
Year to date precipitation 15.18 19.36  
Sea Level Pressure  
Sea Level Pressure 30.00 in    
Wind  
Wind Speed 10 mph (South)    
Max Wind Speed 16 mph    
Max Gust Speed 23 mph    
Visibility 10 miles    
Events      
T = Trace of Precipitation, MM = Missing Value Source: NWS Daily Summary

Daily Weather History Graph

Daily Weather History Graph

Search for Another Location

Airport or City:

Trip Planner

Search our weather history database for the weather conditions in past years. The results will help you decide how hot, cold, wet, or windy it might be!

Date:

Astronomy

Aug. 08, 2013 Rise Set
Actual Time 5:53 AM PDT 8:36 PM PDT
Civil Twilight 5:17 AM PDT 9:12 PM PDT
Nautical Twilight 4:31 AM PDT 9:58 PM PDT
Astronomical Twilight 3:37 AM PDT 10:52 PM PDT
Moon 8:01 AM PDT (8/8) 9:00 PM PDT (8/8)
Length of Visible Light 15h 54m
Length of Day
14h 43m
Waxing Crescent, 3% of the Moon is Illuminated
Aug 8
Waxing Crescent
Aug 14
First Quarter
Aug 20
Full
Aug 28
Last Quarter
Sep 5
New

Hourly Weather History & Observations

Time (PDT) Temp. Dew Point Humidity Pressure Visibility Wind Dir Wind Speed Gust Speed Precip Events Conditions
12:53 AM 63.0 °F 55.0 °F 75% 29.98 in 10.0 mi South 10.4 mph - N/A   Clear
1:53 AM 62.1 °F 55.9 °F 80% 29.99 in 10.0 mi South 12.7 mph - N/A   Clear
2:53 AM 60.1 °F 57.0 °F 90% 30.00 in 10.0 mi South 12.7 mph 18.4 mph N/A   Clear
3:53 AM 60.1 °F 57.0 °F 90% 30.00 in 10.0 mi South 13.8 mph 20.7 mph N/A   Clear
4:14 AM 60.8 °F 57.2 °F 88% 29.99 in 10.0 mi South 12.7 mph 21.9 mph N/A   Partly Cloudy
4:53 AM 59.0 °F 57.0 °F 93% 30.00 in 10.0 mi South 10.4 mph - N/A   Scattered Clouds
5:53 AM 59.0 °F 57.0 °F 93% 30.02 in 10.0 mi South 11.5 mph - N/A   Mostly Cloudy
6:36 AM 60.8 °F 57.2 °F 88% 30.01 in 10.0 mi South 6.9 mph - N/A   Scattered Clouds
6:46 AM 60.8 °F 57.2 °F 88% 30.01 in 10.0 mi South 10.4 mph - N/A   Mostly Cloudy
6:53 AM 60.1 °F 57.0 °F 90% 30.03 in 10.0 mi South 10.4 mph - N/A   Mostly Cloudy
7:20 AM 62.6 °F 57.2 °F 82% 30.02 in 10.0 mi South 9.2 mph - N/A   Scattered Clouds
7:53 AM 63.0 °F 57.0 °F 81% 30.04 in 10.0 mi SSE 11.5 mph - N/A   Scattered Clouds
8:00 AM 62.6 °F 57.2 °F 82% 30.02 in 10.0 mi SSE 11.5 mph 18.4 mph N/A   Mostly Cloudy
8:08 AM 62.6 °F 57.2 °F 82% 30.02 in 10.0 mi South 12.7 mph - N/A   Scattered Clouds
8:53 AM 63.0 °F 57.0 °F 81% 30.04 in 10.0 mi South 9.2 mph - N/A   Partly Cloudy
9:53 AM 66.0 °F 57.0 °F 73% 30.04 in 10.0 mi South 9.2 mph - N/A   Clear
10:53 AM 66.9 °F 57.0 °F 70% 30.03 in 10.0 mi SSE 11.5 mph - N/A   Clear
11:53 AM 69.1 °F 57.0 °F 65% 30.03 in 10.0 mi South 8.1 mph 17.3 mph N/A   Clear
12:53 PM 68.0 °F 57.0 °F 68% 30.02 in 10.0 mi South 10.4 mph - N/A   Clear
1:53 PM 70.0 °F 55.9 °F 61% 30.00 in 10.0 mi South 9.2 mph - N/A   Clear
2:53 PM 71.1 °F 57.0 °F 61% 30.00 in 10.0 mi South 8.1 mph - N/A   Clear
3:53 PM 72.0 °F 55.9 °F 57% 29.99 in 10.0 mi South 9.2 mph - N/A   Clear
4:53 PM 71.1 °F 57.0 °F 61% 29.98 in 10.0 mi South 8.1 mph - N/A   Clear
5:53 PM 72.0 °F 57.0 °F 59% 29.97 in 10.0 mi South 5.8 mph - N/A   Clear
6:53 PM 70.0 °F 55.9 °F 61% 29.96 in 10.0 mi South 9.2 mph - N/A   Clear
7:53 PM 66.9 °F 55.0 °F 66% 29.95 in 10.0 mi South 9.2 mph - N/A   Clear
8:53 PM 64.9 °F 54.0 °F 68% 29.95 in 10.0 mi South 9.2 mph - N/A   Clear
9:53 PM 64.0 °F 53.1 °F 67% 29.96 in 10.0 mi South 8.1 mph - N/A   Clear
10:53 PM 63.0 °F 53.1 °F 70% 29.96 in 10.0 mi South 6.9 mph - N/A   Clear
11:53 PM 60.1 °F 55.0 °F 83% 29.96 in 10.0 mi South 9.2 mph - N/A   Clear